Time,TemperatureF,DewpointF,PressureIn,WindDirection,WindDirectionDegrees,WindSpeedMPH,WindSpeedGustMPH,Humidity,HourlyPrecipIn,Conditions,Clouds,dailyrainin,SolarRadiationWatts/m^2,SoftwareType,DateUTC
2013-06-19 00:01:00,48.0,47.0,-100.00,South,183,0.0,4.0,95,0.00,,,0.39,0.000000,,2013-06-19 07:01:00,
2013-06-19 00:11:00,46.0,45.0,-100.00,East,94,0.0,4.0,95,0.00,,,0.39,0.000000,,2013-06-19 07:11:00,
2013-06-19 00:33:00,46.0,45.0,-100.00,East,94,0.0,4.0,95,0.00,,,0.39,0.000000,,2013-06-19 07:33:00,
2013-06-19 00:43:00,46.0,45.0,-100.00,East,94,0.0,4.0,95,0.00,,,0.39,0.000000,,2013-06-19 07:43:00,
2013-06-19 00:53:00,46.0,45.0,-100.00,East,94,0.0,4.0,95,0.00,,,0.39,0.000000,,2013-06-19 07:53:00,
2013-06-19 01:01:00,46.0,45.0,-100.00,East,94,0.0,4.0,95,0.00,,,0.39,0.000000,,2013-06-19 08:01:00,
2013-06-19 01:11:00,46.0,45.0,-100.00,NW,324,0.0,3.0,95,0.01,,,0.40,0.000000,,2013-06-19 08:11:00,
2013-06-19 01:34:00,46.0,45.0,-100.00,NW,324,0.0,3.0,95,0.01,,,0.40,0.000000,,2013-06-19 08:34:00,
2013-06-19 01:43:00,46.0,45.0,-100.00,NW,324,0.0,3.0,95,0.01,,,0.40,0.000000,,2013-06-19 08:43:00,
2013-06-19 01:53:00,46.0,45.0,-100.00,NW,324,0.0,3.0,95,0.01,,,0.40,0.000000,,2013-06-19 08:53:00,
2013-06-19 02:02:00,46.0,45.0,-100.00,NW,324,0.0,3.0,95,0.01,,,0.40,0.000000,,2013-06-19 09:02:00,
2013-06-19 02:11:00,47.0,45.0,-100.00,WSW,240,0.0,6.0,94,0.00,,,0.40,0.000000,,2013-06-19 09:11:00,
2013-06-19 02:44:00,47.0,45.0,-100.00,WSW,240,0.0,6.0,94,0.00,,,0.40,0.000000,,2013-06-19 09:44:00,
2013-06-19 02:53:00,47.0,45.0,-100.00,WSW,240,0.0,6.0,94,0.00,,,0.40,0.000000,,2013-06-19 09:53:00,
2013-06-19 03:01:00,47.0,45.0,-100.00,WSW,240,0.0,6.0,94,0.00,,,0.40,0.000000,,2013-06-19 10:01:00,
2013-06-19 03:11:00,47.0,45.0,-100.00,WSW,250,0.0,9.0,92,0.00,,,0.40,0.000000,,2013-06-19 10:11:00,
2013-06-19 03:33:00,47.0,45.0,-100.00,WSW,250,0.0,9.0,92,0.00,,,0.40,0.000000,,2013-06-19 10:33:00,
2013-06-19 03:43:00,47.0,45.0,-100.00,WSW,250,0.0,9.0,92,0.00,,,0.40,0.000000,,2013-06-19 10:43:00,
2013-06-19 03:53:00,47.0,45.0,-100.00,WSW,250,0.0,9.0,92,0.00,,,0.40,0.000000,,2013-06-19 10:53:00,
2013-06-19 04:02:00,47.0,45.0,-100.00,WSW,250,0.0,9.0,92,0.00,,,0.40,0.000000,,2013-06-19 11:02:00,
2013-06-19 04:11:00,47.0,45.0,-100.00,SE,144,0.0,6.0,94,0.00,,,0.40,0.000000,,2013-06-19 11:11:00,
2013-06-19 04:33:00,47.0,45.0,-100.00,SE,144,0.0,6.0,94,0.00,,,0.40,0.000000,,2013-06-19 11:33:00,
2013-06-19 04:43:00,47.0,45.0,-100.00,SE,144,0.0,6.0,94,0.00,,,0.40,0.000000,,2013-06-19 11:43:00,
2013-06-19 04:54:00,47.0,45.0,-100.00,SE,144,0.0,6.0,94,0.00,,,0.40,0.000000,,2013-06-19 11:54:00,
2013-06-19 05:01:00,47.0,45.0,-100.00,SE,144,0.0,6.0,94,0.00,,,0.40,0.000000,,2013-06-19 12:01:00,
2013-06-19 05:11:00,47.0,46.0,-100.00,East,97,0.0,3.0,95,0.00,,,0.40,0.000000,,2013-06-19 12:11:00,
2013-06-19 05:34:00,47.0,46.0,-100.00,East,97,0.0,3.0,95,0.00,,,0.40,0.000000,,2013-06-19 12:34:00,
2013-06-19 05:44:00,47.0,46.0,-100.00,East,97,0.0,3.0,95,0.00,,,0.40,0.000000,,2013-06-19 12:44:00,
2013-06-19 05:53:00,47.0,46.0,-100.00,East,97,0.0,3.0,95,0.00,,,0.40,0.000000,,2013-06-19 12:53:00,
2013-06-19 06:02:00,47.0,46.0,-100.00,East,97,0.0,3.0,95,0.00,,,0.40,0.000000,,2013-06-19 13:02:00,
2013-06-19 06:11:00,47.0,46.0,-100.00,ESE,117,0.0,4.0,95,0.00,,,0.40,4.000000,,2013-06-19 13:11:00,
2013-06-19 06:43:00,47.0,46.0,-100.00,ESE,117,0.0,4.0,95,0.00,,,0.40,4.000000,,2013-06-19 13:43:00,
2013-06-19 06:54:00,47.0,46.0,-100.00,ESE,117,0.0,4.0,95,0.00,,,0.40,4.000000,,2013-06-19 13:54:00,
2013-06-19 07:02:00,47.0,46.0,-100.00,ESE,117,0.0,4.0,95,0.00,,,0.40,4.000000,,2013-06-19 14:02:00,
2013-06-19 07:11:00,46.0,44.0,-100.00,SE,136,0.0,4.0,94,0.00,,,0.40,28.000000,,2013-06-19 14:11:00,
2013-06-19 07:34:00,46.0,44.0,-100.00,SE,136,0.0,4.0,94,0.00,,,0.40,28.000000,,2013-06-19 14:34:00,
2013-06-19 07:44:00,46.0,44.0,-100.00,SE,136,0.0,4.0,94,0.00,,,0.40,28.000000,,2013-06-19 14:44:00,
2013-06-19 07:53:00,46.0,44.0,-100.00,SE,136,0.0,4.0,94,0.00,,,0.40,28.000000,,2013-06-19 14:53:00,
2013-06-19 08:01:00,46.0,44.0,-100.00,SE,136,0.0,4.0,94,0.00,,,0.40,28.000000,,2013-06-19 15:01:00,
2013-06-19 08:11:00,49.0,46.0,-100.00,ESE,112,0.0,0.0,91,0.00,,,0.40,63.000000,,2013-06-19 15:11:00,
2013-06-19 08:43:00,49.0,46.0,-100.00,ESE,112,0.0,0.0,91,0.00,,,0.40,63.000000,,2013-06-19 15:43:00,
2013-06-19 08:53:00,49.0,46.0,-100.00,ESE,112,0.0,0.0,91,0.00,,,0.40,63.000000,,2013-06-19 15:53:00,
2013-06-19 09:01:00,49.0,46.0,-100.00,ESE,112,0.0,0.0,91,0.00,,,0.40,63.000000,,2013-06-19 16:01:00,
2013-06-19 09:11:00,50.0,45.0,-100.00,South,175,0.0,6.0,84,0.00,,,0.40,168.000000,,2013-06-19 16:11:00,
2013-06-19 09:43:00,50.0,45.0,-100.00,South,175,0.0,6.0,84,0.00,,,0.40,168.000000,,2013-06-19 16:43:00,
2013-06-19 09:52:00,50.0,45.0,-100.00,South,175,0.0,6.0,84,0.00,,,0.40,168.000000,,2013-06-19 16:52:00,
2013-06-19 10:02:00,50.0,45.0,-100.00,South,175,0.0,6.0,84,0.00,,,0.40,168.000000,,2013-06-19 17:02:00,
2013-06-19 10:11:00,53.0,46.0,-100.00,SE,132,0.0,6.0,77,0.00,,,0.40,322.000000,,2013-06-19 17:11:00,
2013-06-19 10:43:00,53.0,46.0,-100.00,SE,132,0.0,6.0,77,0.00,,,0.40,322.000000,,2013-06-19 17:43:00,
2013-06-19 10:53:00,53.0,46.0,-100.00,SE,132,0.0,6.0,77,0.00,,,0.40,322.000000,,2013-06-19 17:53:00,
2013-06-19 11:01:00,53.0,46.0,-100.00,SE,132,0.0,6.0,77,0.00,,,0.40,322.000000,,2013-06-19 18:01:00,
2013-06-19 11:11:00,55.0,45.0,-100.00,South,171,0.0,8.0,70,0.00,,,0.40,326.000000,,2013-06-19 18:11:00,
2013-06-19 11:44:00,55.0,45.0,-100.00,South,171,0.0,8.0,70,0.00,,,0.40,326.000000,,2013-06-19 18:44:00,
2013-06-19 11:53:00,55.0,45.0,-100.00,South,171,0.0,8.0,70,0.00,,,0.40,326.000000,,2013-06-19 18:53:00,
2013-06-19 12:01:00,55.0,45.0,-100.00,South,171,0.0,8.0,70,0.00,,,0.40,326.000000,,2013-06-19 19:01:00,
2013-06-19 12:11:00,57.0,46.0,-100.00,SSE,168,2.0,8.0,67,0.00,,,0.40,449.000000,,2013-06-19 19:11:00,
2013-06-19 12:32:00,57.0,46.0,-100.00,SSE,168,2.0,8.0,67,0.00,,,0.40,449.000000,,2013-06-19 19:32:00,
2013-06-19 12:43:00,57.0,46.0,-100.00,SSE,168,2.0,8.0,67,0.00,,,0.40,449.000000,,2013-06-19 19:43:00,
2013-06-19 12:53:00,57.0,46.0,-100.00,SSE,168,2.0,8.0,67,0.00,,,0.40,449.000000,,2013-06-19 19:53:00,
2013-06-19 13:02:00,57.0,46.0,-100.00,SSE,168,2.0,8.0,67,0.00,,,0.40,449.000000,,2013-06-19 20:02:00,
2013-06-19 13:11:00,57.0,44.0,-100.00,SSE,163,0.0,7.0,62,0.00,,,0.40,305.000000,,2013-06-19 20:11:00,
2013-06-19 13:33:00,57.0,44.0,-100.00,SSE,163,0.0,7.0,62,0.00,,,0.40,305.000000,,2013-06-19 20:33:00,
2013-06-19 13:42:00,57.0,44.0,-100.00,SSE,163,0.0,7.0,62,0.00,,,0.40,305.000000,,2013-06-19 20:42:00,
2013-06-19 13:52:00,57.0,44.0,-100.00,SSE,163,0.0,7.0,62,0.00,,,0.40,305.000000,,2013-06-19 20:52:00,
2013-06-19 14:02:00,57.0,44.0,-100.00,SSE,163,0.0,7.0,62,0.00,,,0.40,305.000000,,2013-06-19 21:02:00,
2013-06-19 14:11:00,60.0,46.0,-100.00,SSE,148,1.0,8.0,60,0.00,,,0.40,470.000000,,2013-06-19 21:11:00,
2013-06-19 14:44:00,60.0,46.0,-100.00,SSE,148,1.0,8.0,60,0.00,,,0.40,470.000000,,2013-06-19 21:44:00,
2013-06-19 14:52:00,60.0,46.0,-100.00,SSE,148,1.0,8.0,60,0.00,,,0.40,470.000000,,2013-06-19 21:52:00,
2013-06-19 15:01:00,60.0,46.0,-100.00,SSE,148,1.0,8.0,60,0.00,,,0.40,470.000000,,2013-06-19 22:01:00,
2013-06-19 15:11:00,62.0,47.0,-100.00,SSE,163,1.0,9.0,58,0.00,,,0.40,610.000000,,2013-06-19 22:11:00,
2013-06-19 15:43:00,62.0,47.0,-100.00,SSE,163,1.0,9.0,58,0.00,,,0.40,610.000000,,2013-06-19 22:43:00,
2013-06-19 15:53:00,62.0,47.0,-100.00,SSE,163,1.0,9.0,58,0.00,,,0.40,610.000000,,2013-06-19 22:53:00,
2013-06-19 16:02:00,62.0,47.0,-100.00,SSE,163,1.0,9.0,58,0.00,,,0.40,610.000000,,2013-06-19 23:02:00,
2013-06-19 16:11:00,58.0,47.0,-100.00,SSE,168,2.0,11.0,68,0.00,,,0.40,567.000000,,2013-06-19 23:11:00,
2013-06-19 16:43:00,58.0,47.0,-100.00,SSE,168,2.0,11.0,68,0.00,,,0.40,567.000000,,2013-06-19 23:43:00,
2013-06-19 16:52:00,58.0,47.0,-100.00,SSE,168,2.0,11.0,68,0.00,,,0.40,567.000000,,2013-06-19 23:52:00,
2013-06-19 17:01:00,58.0,47.0,-100.00,SSE,168,2.0,11.0,68,0.00,,,0.40,567.000000,,2013-06-20 00:01:00,
2013-06-19 18:11:00,53.0,48.0,-100.00,SSE,164,0.0,6.0,83,-99.99,,,0.27,89.000000,,2013-06-20 01:11:00,
2013-06-19 18:33:00,53.0,48.0,-100.00,SSE,164,0.0,6.0,83,-99.99,,,0.27,89.000000,,2013-06-20 01:33:00,
2013-06-19 18:44:00,53.0,48.0,-100.00,SSE,164,0.0,6.0,83,-99.99,,,0.27,89.000000,,2013-06-20 01:44:00,
2013-06-19 18:52:00,53.0,48.0,-100.00,SSE,164,0.0,6.0,83,-99.99,,,0.27,89.000000,,2013-06-20 01:52:00,
2013-06-19 19:02:00,53.0,48.0,-100.00,SSE,164,0.0,6.0,83,-99.99,,,0.27,89.000000,,2013-06-20 02:02:00,
2013-06-19 19:11:00,55.0,49.0,-100.00,SSE,150,0.0,6.0,79,0.00,,,0.10,127.000000,,2013-06-20 02:11:00,
2013-06-19 19:34:00,55.0,49.0,-100.00,SSE,150,0.0,6.0,79,0.00,,,0.10,127.000000,,2013-06-20 02:34:00,
2013-06-19 19:43:00,55.0,49.0,-100.00,SSE,150,0.0,6.0,79,0.00,,,0.10,127.000000,,2013-06-20 02:43:00,
2013-06-19 19:52:00,55.0,49.0,-100.00,SSE,150,0.0,6.0,79,0.00,,,0.10,127.000000,,2013-06-20 02:52:00,
2013-06-19 20:02:00,55.0,49.0,-100.00,SSE,150,0.0,6.0,79,0.00,,,0.10,127.000000,,2013-06-20 03:02:00,
2013-06-19 20:11:00,51.0,48.0,-100.00,ESE,121,0.0,7.0,89,0.02,,,0.03,33.000000,,2013-06-20 03:11:00,
2013-06-19 20:33:00,51.0,48.0,-100.00,ESE,121,0.0,7.0,89,0.02,,,0.03,33.000000,,2013-06-20 03:33:00,
2013-06-19 20:43:00,51.0,48.0,-100.00,ESE,121,0.0,7.0,89,0.02,,,0.03,33.000000,,2013-06-20 03:43:00,
2013-06-19 20:54:00,51.0,48.0,-100.00,ESE,121,0.0,7.0,89,0.02,,,0.03,33.000000,,2013-06-20 03:54:00,
2013-06-19 21:01:00,51.0,48.0,-100.00,ESE,121,0.0,7.0,89,0.02,,,0.03,33.000000,,2013-06-20 04:01:00,
2013-06-19 21:11:00,48.0,45.0,-100.00,SE,124,0.0,8.0,91,0.00,,,0.03,16.000000,,2013-06-20 04:11:00,
2013-06-19 21:34:00,48.0,45.0,-100.00,SE,124,0.0,8.0,91,0.00,,,0.03,16.000000,,2013-06-20 04:34:00,
2013-06-19 21:43:00,48.0,45.0,-100.00,SE,124,0.0,8.0,91,0.00,,,0.03,16.000000,,2013-06-20 04:43:00,
2013-06-19 21:54:00,48.0,45.0,-100.00,SE,124,0.0,8.0,91,0.00,,,0.03,16.000000,,2013-06-20 04:54:00,
2013-06-19 22:01:00,48.0,45.0,-100.00,SE,124,0.0,8.0,91,0.00,,,0.03,16.000000,,2013-06-20 05:01:00,
2013-06-19 22:11:00,49.0,47.0,-100.00,SE,131,0.0,0.0,93,0.00,,,0.03,0.000000,,2013-06-20 05:11:00,
2013-06-19 22:33:00,49.0,47.0,-100.00,SE,131,0.0,0.0,93,0.00,,,0.03,0.000000,,2013-06-20 05:33:00,
2013-06-19 22:44:00,49.0,47.0,-100.00,SE,131,0.0,0.0,93,0.00,,,0.03,0.000000,,2013-06-20 05:44:00,
2013-06-19 22:53:00,49.0,47.0,-100.00,SE,131,0.0,0.0,93,0.00,,,0.03,0.000000,,2013-06-20 05:53:00,
2013-06-19 23:01:00,49.0,47.0,-100.00,SE,131,0.0,0.0,93,0.00,,,0.03,0.000000,,2013-06-20 06:01:00,
2013-06-19 23:11:00,48.0,45.0,-100.00,South,174,0.0,7.0,90,0.00,,,0.03,0.000000,,2013-06-20 06:11:00,
2013-06-19 23:43:00,48.0,45.0,-100.00,South,174,0.0,7.0,90,0.00,,,0.03,0.000000,,2013-06-20 06:43:00,
2013-06-19 23:53:00,48.0,45.0,-100.00,South,174,0.0,7.0,90,0.00,,,0.03,0.000000,,2013-06-20 06:53:00,